Location: Blue Mountain Vista Observatory
(40.6992°N, 75.9422°W)
Time: 00:00:25
(UTC-05:00)

Daily predictions for brighter satellites

Satellite Brightness Start Highest point End
(mag) Time Altitude Azimuth Time Altitude Azimuth Time Altitude Azimuth
NOSS 3-1 (A) 4.3 04:18:27 54° N 04:20:02 65° NE 04:28:21 10° SE
ATLAS 2AS CENTAUR R/B 4.5 04:23:08 18° N 04:27:49 29° NE 04:34:25 10° E
Cosmos 2221 3.3 04:52:48 51° E 04:52:55 51° E 04:57:06 10° NNE
Cosmos 2263 Rocket 3.8 04:49:11 10° SSE 04:54:12 33° ESE 04:59:15 10° NE
Meteor 1-11 4.2 04:52:31 33° N 04:55:16 82° E 05:01:04 10° S
Tiangong 2 3.8 04:59:20 19° ENE 04:59:20 19° ENE 05:00:23 10° ENE
NOSS 3-1 (C) 4.0 04:56:06 54° WNW 04:57:48 66° WSW 05:06:07 10° SSE
Gbstr 26 Del rocket 4.1 04:57:35 45° S 04:58:53 57° SE 05:04:59 10° ENE
NOAA 6 4.3 04:53:50 10° NNE 04:59:03 68° ESE 05:04:11 10° S
Cosmos 1777 Rocket 4.4 05:02:07 49° N 05:02:07 49° N 05:06:00 10° NNE
SKYMED 2 4.2 04:57:45 10° SSE 05:01:59 53° ENE 05:03:40 32° NNE
Cosmos 1603 3.5 05:05:03 71° W 05:05:22 73° WSW 05:11:00 10° SSE
SL-8 R/B 3.8 05:09:16 61° S 05:09:16 61° S 05:13:40 10° SE
Feng Yun 1-1 Rocket 4.2 05:09:56 10° N 05:15:18 56° WNW 05:15:46 55° W
SeaSat 1 2.9 05:22:24 10° NNE 05:26:30 40° NW 05:26:30 40° NW
Coronas F rocket 3.1 05:30:48 29° ESE 05:30:48 29° ESE 05:32:28 10° SSE
Cosmos 1464 Rocket 3.9 05:25:16 10° SSW 05:31:34 72° W 05:37:50 10° N
Meteor 2-1 Rocket 4.2 05:27:36 10° SSW 05:33:11 63° WNW 05:38:57 10° N
Ariane Rocket 3.3 05:30:39 10° NNE 05:35:46 70° ESE 05:40:50 10° S
Cosmos 2058 4.3 05:42:54 23° SW 05:42:54 23° SW 05:44:53 10° SSW
Cosmos 1891 Rocket 4.5 05:35:07 10° SSW 05:41:33 75° W 05:48:03 10° N
Cosmos 1626 1.9 05:40:45 27° NNW 05:42:39 73° W 05:46:21 10° S
Cosmos 923 Rocket 4.2 05:41:04 30° NW 05:43:12 47° WSW 05:48:13 10° S
Cosmos 1680 Rocket 3.6 05:45:52 19° NNW 05:49:34 55° WSW 05:54:44 10° S
COSMO-SKYMED 1 2.9 05:45:54 10° S 05:50:01 43° W 05:52:16 24° NW
Cosmos 1898 Rocket 3.9 05:44:56 10° S 05:50:07 67° ESE 05:55:25 10° NNE
Cosmos 1805 Rocket 3.7 05:48:24 17° NNW 05:51:31 48° W 05:55:41 10° SSW
DELTA 2 R/B (1) 3.6 05:49:38 27° W 05:52:42 81° S 05:58:16 10° E
PAYLOAD A 4.3 05:50:55 10° NNE 05:55:50 67° E 06:00:34 10° S
Meteor 1-28 Rocket 3.4 05:55:54 10° S 05:59:31 47° W 06:02:23 15° NNW
Cosmos 1356 Rocket 3.9 05:58:40 22° NW 06:00:46 36° W 06:04:38 10° SSW
Sich 1 3.0 05:59:13 10° NNW 06:03:28 55° W 06:07:39 10° S
Cosmos 1184 Rocket 3.5 06:04:18 29° WNW 06:04:59 32° W 06:07:59 10° SSW
IDEFIX/ARIANE 42P 3.3 06:00:32 10° NNE 06:05:45 58° E 06:10:55 10° S
Cosmos 2150 Rocket 4.2 06:01:50 10° SSW 06:07:15 79° ESE 06:12:37 10° NNE
Cosmos 1633 Rocket 3.2 06:10:16 10° NNW 06:14:27 47° W 06:18:37 10° SSW
Cosmos 1151 Rocket 3.8 06:11:04 10° S 06:15:14 54° E 06:19:24 10° NNE
NOSS 3-3 (A) 4.2 06:09:23 10° SSW 06:15:31 76° ESE 06:22:09 10° NE
NOSS 3-3 (C) 4.3 06:09:30 10° SSW 06:15:38 75° ESE 06:22:16 10° NE
Cosmos 1937 Rocket 3.6 06:10:32 10° SSW 06:15:40 81° ESE 06:20:50 10° NNE
Cosmos 1328 Rocket 3.4 06:11:24 10° SSW 06:15:43 71° W 06:20:07 10° N
Helios 1B rocket 3.8 06:12:01 10° SE 06:15:52 40° ENE 06:19:44 10° N
DELTA 2 R/B(2) 4.3 06:15:37 20° SW 06:16:36 39° SSE 06:19:00 10° E
Cosmos 2228 Rocket 3.0 06:13:58 10° SSW 06:18:20 62° W 06:22:43 10° N
ATLAS 2AS CENTAUR R/B 3.0 06:11:41 10° NW 06:19:47 82° WSW 06:27:15 10° SSE
Cosmos 1943 3.8 06:16:44 10° NW 06:21:53 36° WSW 06:27:00 10° S
CZ-2C R/B 2.3 06:18:16 10° NNE 06:22:51 83° ESE 06:27:27 10° SSW
Cosmos 2344 3.7 06:16:10 10° SW 06:23:47 68° NW 06:32:29 10° NNE
Aureole 3 4.2 06:19:40 10° N 06:26:09 85° W 06:31:10 10° S
CZ-4 R/B 1.4 06:22:11 10° N 06:26:19 81° WNW 06:30:28 10° SSW
Cosmos 1634 Rocket 4.1 06:20:33 10° S 06:26:51 89° E 06:33:08 10° N
BREEZE-M DEB (TANK) 3.3 06:27:04 12° NW 06:29:10 26° NNE 06:31:03 10° E
Cosmos 1515 Rocket 3.5 06:24:58 10° SSW 06:29:21 68° W 06:33:48 10° N
Meteor 2-2 Rocket 4.2 06:24:00 10° SSW 06:29:49 78° W 06:35:34 10° N
Cosmos 2221 4.2 06:30:01 13° W 06:30:49 13° WNW 06:32:54 10° NW
USA 234 4.0 06:24:41 10° ESE 06:30:54 49° NNE 06:37:08 10° NW
Cosmos 389 Rocket 3.6 06:28:06 10° SW 06:31:09 24° WNW 06:34:12 10° NNW
Alouette 2 Rocket 3.9 06:27:39 10° N 06:31:15 62° ENE 06:35:43 10° SSE
CSL-04 Debris 4.3 06:27:01 10° N 06:32:19 52° WNW 06:37:34 10° SW
SJ-12 3.9 06:29:00 10° N 06:33:03 65° WNW 06:37:04 10° SSW
Tiangong 2 1.3 06:31:20 14° WNW 06:33:52 55° N 06:36:58 10° ENE
CZ-3 Stage 3 4.2 06:28:56 10° WSW 06:33:58 30° S 06:51:09 10° SE
SMAP 3.0 06:32:11 10° N 06:36:52 83° WNW 06:41:31 10° SSW
Cosmos 2263 Rocket 2.8 06:32:53 10° SW 06:38:03 35° WNW 06:43:16 10° N
Cosmos 2298 Rocket 4.2 06:32:59 10° SW 06:38:06 49° WNW 06:43:15 10° N
Cosmos 1726 2.0 06:36:05 10° SSW 06:39:45 74° W 06:43:29 10° N
Cosmos 1844 Rocket 3.6 06:34:32 10° S 06:40:01 55° ESE 06:45:33 10° NNE
YAOGAN 1 2.5 06:36:48 10° N 06:41:10 84° WNW 06:45:29 10° SSW
PSLV R/B 3.7 06:41:03 10° W 06:44:23 52° SSW 06:47:40 10° ESE
Gbstr 26 Del rocket 4.3 06:40:57 10° W 06:46:19 45° NNW 06:52:54 10° NE
APEX 4.4 06:44:19 10° W 06:46:36 16° WNW 06:48:39 10° NNW
Cosmos 1484 Rocket 3.3 06:42:53 10° NNE 06:46:53 68° ESE 06:50:47 10° S
Cosmos 2026 Rocket 4.0 06:41:16 10° N 06:47:22 86° W 06:53:27 10° S
AQUARIUS 4.3 06:46:29 10° N 06:50:54 56° WNW 06:55:18 10° SSW
CSL-04 Rocket 4.4 06:47:18 10° N 06:51:49 29° WNW 06:56:19 10° SW
COSMOS 2406 3.3 06:51:42 10° NNW 06:57:31 89° ENE 07:03:18 10° SSE
